DW4465 Weather Reports


Display with metric or nautical units.
time (UTC)temp
F
wind
direction
speed
MPH
gust
MPH
rain 1hr
in
rain 24hr
in
rain mn
in
humidity
%
barometer
mb
20260502123038 60 232 1.0 4.0 0.00 0.00 0.00 87 1013.9
20260502121545 59 0 0.0 0.0 0.00 0.00 0.00 87 1013.9
20260502114544 59 0 0.0 3.0 0.00 0.00 0.00 87 1013.8
20260502113042 59 197 0.0 2.0 0.00 0.00 0.00 87 1013.6
20260502111539 59 0 0.0 3.0 0.00 0.00 0.00 87 1013.6
20260502110041 58 0 0.0 2.0 0.00 0.00 0.00 86 1013.8
20260502104547 58 0 0.0 1.0 0.00 0.00 0.00 86 1013.5
20260502103037 58 0 0.0 1.0 0.00 0.00 0.00 86 1013.4
20260502101540 57 0 0.0 1.0 0.00 0.00 0.00 86 1013.5
20260502070041 59 0 0.0 0.0 0.00 0.00 0.00 83 1014.4
20260502064541 59 0 0.0 0.0 0.00 0.00 0.00 83 1014.3
20260502063045 59 0 0.0 1.0 0.00 0.00 0.00 83 1014.4
20260502061542 60 0 0.0 2.0 0.00 0.00 0.00 83 1014.2
20260502060042 60 0 0.0 1.0 0.00 0.00 0.00 83 1014.1
20260502054546 60 331 0.0 2.0 0.00 0.00 0.00 82 1014.1
20260502053045 61 309 0.0 3.0 0.00 0.00 0.00 82 1014.2
20260502051612 61 0 0.0 3.0 0.00 0.00 0.00 82 1014.3
20260502050047 61 0 0.0 3.0 0.00 0.00 0.00 81 1014.1
20260502044541 61 0 0.0 3.0 0.00 0.00 0.00 81 1014.1
20260502043044 61 0 0.0 3.0 0.00 0.00 0.00 81 1013.8
20260502041549 62 0 1.0 3.0 0.00 0.00 0.00 80 1013.6
20260502040051 62 0 0.0 4.0 0.00 0.00 0.00 80 1013.4
20260502034547 62 0 0.0 3.0 0.00 0.00 0.00 79 1013.1
20260502033050 62 288 1.0 3.0 0.00 0.00 0.00 79 1012.9
20260502031559 63 309 0.0 4.0 0.00 0.00 0.00 78 1012.8
20260502030039 63 0 1.0 4.0 0.00 0.00 0.00 77 1012.8
20260502024537 64 0 1.0 6.0 0.00 0.00 0.00 76 1012.6
20260502023037 65 266 1.0 4.0 0.00 0.00 0.00 74 1012.5
20260502021541 65 316 1.0 4.0 0.00 0.00 0.00 73 1012.4
20260502020044 66 287 1.0 6.0 0.00 0.00 0.00 71 1012.2
20260502014541 67 265 1.0 5.0 0.00 0.00 0.00 70 1012.2
20260502013040 68 279 1.0 5.0 0.00 0.00 0.00 69 1012.0
20260502011545 69 317 2.0 8.0 0.00 0.00 0.00 68 1011.9
20260502010047 70 315 1.0 8.0 0.00 0.00 0.00 67 1011.9
20260502004539 71 349 2.0 10.0 0.00 0.00 0.00 66 1011.8
20260502003039 72 324 1.0 6.0 0.00 0.00 0.00 63 1011.8
20260502001537 73 289 2.0 7.0 0.00 0.00 0.00 62 1011.7
20260502000037 73 284 3.0 8.0 0.00 0.00 0.00 60 1011.7
20260501234552 74 285 1.0 8.0 0.00 0.00 0.00 59 1011.7
20260501233043 73 181 4.0 10.0 0.00 0.00 0.00 60 1011.7
20260501231554 73 190 4.0 9.0 0.00 0.00 0.00 62 1011.7
20260501230039 72 185 5.0 12.0 0.00 0.00 0.00 62 1011.8
20260501224547 72 190 3.0 9.0 0.00 0.00 0.00 61 1012.0
20260501223037 72 185 5.0 12.0 0.00 0.00 0.00 62 1012.1
20260501221542 72 205 4.0 10.0 0.00 0.00 0.00 61 1012.5
20260501220043 73 172 4.0 9.0 0.00 0.00 0.00 61 1012.7
20260501214551 72 182 3.0 9.0 0.00 0.00 0.00 62 1012.9
20260501213043 72 171 3.0 8.0 0.00 0.00 0.00 62 1013.2
20260501211545 71 162 6.0 14.0 0.00 0.00 0.00 64 1013.3
20260501210044 71 198 5.0 10.0 0.00 0.00 0.00 63 1013.5
20260501204542 71 241 4.0 11.0 0.00 0.00 0.00 63 1013.6
20260501203040 71 234 5.0 12.0 0.00 0.00 0.00 63 1013.7
20260501201546 72 192 4.0 10.0 0.00 0.00 0.00 62 1013.8
20260501200048 73 270 2.0 7.0 0.00 0.00 0.00 60 1013.8
20260501194543 72 172 3.0 8.0 0.00 0.00 0.00 64 1013.9
20260501193043 71 340 2.0 6.0 0.00 0.00 0.00 65 1013.8
20260501191542 71 255 1.0 7.0 0.00 0.00 0.00 64 1014.2
20260501190040 70 344 1.0 6.0 0.00 0.00 0.00 67 1014.5
20260501184539 70 166 0.0 3.0 0.00 0.00 0.00 66 1014.7
20260501183037 69 189 2.0 6.0 0.00 0.00 0.00 68 1014.8
20260501181540 68 0 0.0 3.0 0.00 0.00 0.00 70 1015.0
20260501180044 65 0 1.0 2.0 0.00 0.00 0.00 73 1015.1
20260501174601 65 153 0.0 5.0 0.00 0.00 0.00 73 1015.2
20260501173100 65 186 1.0 6.0 0.00 0.00 0.00 73 1015.4
20260501171553 65 213 1.0 7.0 0.00 0.00 0.00 73 1015.4
20260501170044 65 193 1.0 3.0 0.00 0.00 0.00 73 1015.3
20260501164544 64 0 0.0 3.0 0.00 0.00 0.00 74 1015.4
20260501163040 64 140 0.0 4.0 0.00 0.00 0.00 74 1015.5
20260501161542 64 142 1.0 4.0 0.00 0.00 0.00 74 1015.3
20260501160050 63 0 0.0 3.0 0.00 0.00 0.00 75 1015.3
20260501154556 63 0 0.0 4.0 0.00 0.00 0.00 75 1015.2
20260501153044 63 0 0.0 4.0 0.00 0.00 0.00 76 1015.0
20260501151551 62 90 0.0 6.0 0.00 0.00 0.00 76 1014.9
20260501150048 62 154 0.0 3.0 0.00 0.00 0.00 76 1014.7
20260501144551 62 136 1.0 6.0 0.00 0.00 0.00 77 1014.7
20260501143046 62 0 1.0 5.0 0.00 0.00 0.00 77 1014.6
20260501141549 62 0 0.0 7.0 0.00 0.00 0.00 77 1014.5
20260501140043 62 113 0.0 2.0 0.00 0.00 0.00 78 1014.4